OneWeb SL0042

operational
NORAD ID: 45441 Int'l Des: 2020-020 Owner: ONEWEB Country: UK Constellation: oneweb
LEOCIRCULARPOLARONEWEB_TYPE

About OneWeb SL0042

Description loading...

Live Position

Loading 3D Globe...

Upcoming Passes

Altitude History

Altitude vs Time

uPlot chart will show altitude changes over time

Two-Line Element Set

1 45441U 20020T 26034.52717035 -.00000408 00000-0 -11858-2 0 9996
2 45441 87.8822 47.6486 0001907 87.3793 272.7553 13.11417839285143
Epoch: Feb 3, 2026 • Age: 13 hours

Current Status

Altitude 1224.8 km
Velocity 7.25 km/s
Sub-Earth Point 50.92°N, 58.79°E
Launch Date Mar 21, 2020
Age 5.8 years
Type internet

Technical Details

Classification Payload
Mass 148.00 kg
Dry Mass 140.00 kg
Total Mass 148.00 kg
Length 1.30 m
Diameter 1.00 m
Span 5.00 m
Shape Trapezoid+2 pan
Manufacturer ONEWUS
Bus Type ARROW
Phase Status In Orbit
Owner/State ONEWEB/UK

Large Constellations

Loading constellations...